Temperature
18 18 18 18 18 18 18 17 17 17 17 17 17 17 17 17 17 17 17 17 17 17 17 17 17 17 17 17 18 18 18 18 18 18 18 18 18 18 18 18 18 18 18
18 18 18 18 18 18 17 17 17 17 17 17 17 17 17 17 17 17 17 17 17 17 17 17 17 17 17 17 17 17 18 18 18 18 18 18 18 18 18 18 18 18 18
17 17 18 17 17 17 17 17 17 17 17 17 17 16 16 16 16 16 16 16 16 17 17 17 17 17 17 17 17 17 17 17 17 18 18 18 18 18 18 18 18 18 18
17 17 17 17 17 17 17 17 17 17 17 16 16 16 16 16 16 16 16 16 16 16 17 17 17 17 17 17 17 17 17 17 17 17 17 17 17 17 18 18 18 18 18
17 17 17 17 17 17 17 17 17 17 16 16 16 16 16 16 16 16 16 16 16 16 16 16 16 16 16 17 17 17 17 17 17 17 17 17 17 18 18 18 18 18 18
17 17 17 17 17 17 17 17 16 16 16 16 16 16 16 16 16 15 15 15 15 16 16 16 16 16 16 16 17 17 17 17 17 17 17 17 17 17 18 18 18 18 18
17 17 17 17 17 17 17 17 16 16 16 16 16 16 16 16 16 15 15 15 15 15 15 16 16 16 16 16 17 17 17 17 17 17 17 17 17 17 17 18 18 18 18
17 18 18 17 17 17 17 17 16 16 16 16 16 16 16 16 16 16 16 15 15 15 15 16 16 16 16 16 16 17 17 17 17 17 17 17 17 17 17 17 18 18 18
18 18 18 18 17 17 17 17 17 16 16 16 16 16 16 16 16 16 15 16 16 16 16 16 16 16 16 16 16 17 17 17 17 17 17 17 17 17 17 17 17 17 18
18 18 18 18 17 17 17 17 17 17 16 16 16 16 16 16 16 15 15 16 16 16 16 16 16 16 16 16 16 17 17 17 17 17 17 17 17 17 17 17 17 17 17
19 19 18 18 18 18 17 17 17 17 16 16 16 16 16 16 16 16 16 16 16 16 16 16 16 16 16 16 16 17 17 17 17 17 17 17 17 17 17 17 17 17 17
19 19 19 18 18 18 18 17 17 17 16 16 16 16 16 16 16 16 16 16 16 16 16 16 16 16 16 16 16 17 17 17 17 17 17 17 17 17 17 17 17 17 17
19 19 19 19 19 18 18 17 17 17 17 16 16 16 16 16 16 16 16 16 16 16 16 16 16 16 16 16 17 17 17 17 17 17 17 17 17 17 17 17 17 17 17
20 20 19 19 19 18 18 18 17 17 17 17 16 16 16 16 16 16 16 16 16 16 16 16 16 16 16 16 17 17 17 17 17 16 16 16 16 17 17 17 17 17 17
20 20 19 19 19 19 18 18 18 17 17 17 17 17 16 16 16 16 16 16 16 16 16 16 16 16 16 16 16 16 16 16 16 16 16 16 16 17 17 17 17 17 17
20 20 19 19 19 19 19 18 18 17 17 17 17 17 16 16 16 16 16 16 16 16 16 16 16 16 16 16 16 16 16 16 16 16 16 16 16 16 17 17 17 17 17
20 20 19 19 19 19 18 18 18 17 17 17 17 17 17 16 16 16 16 16 16 16 16 16 16 16 16 16 16 16 16 16 16 16 16 16 16 16 16 16 16 17 17
20 20 19 19 19 18 18 18 18 17 17 17 16 16 16 16 16 16 16 16 15 15 15 16 16 16 16 16 16 16 16 16 16 16 16 16 16 16 16 16 16 16 17
20 19 19 19 18 18 18 18 17 17 17 16 16 16 16 16 16 16 16 15 15 15 15 15 15 16 16 16 16 16 16 16 16 16 16 16 16 16 16 16 16 16 16
20 20 19 19 18 18 18 18 17 17 16 16 16 16 16 16 15 15 15 15 15 15 15 15 15 15 16 16 16 16 16 16 16 16 16 16 16 16 16 16 16 16 16
20 20 19 19 18 18 18 17 17 17 16 16 16 16 15 15 15 15 15 15 15 15 15 15 15 15 15 16 16 16 16 16 16 16 16 16 16 16 16 16 16 16 16
20 20 19 19 18 18 18 17 17 17 16 16 16 16 15 16 15 15 15 15 15 15 15 15 15 15 15 15 16 16 16 16 16 16 16 16 16 16 16 15 15 15 16
20 20 19 19 18 18 18 17 17 17 17 16 16 16 16 15 15 15 15 15 15 15 15 15 15 15 15 15 15 15 15 15 16 16 16 16 16 16 15 15 15 15 15
20 20 19 19 18 18 18 17 17 17 17 16 16 16 16 15 15 15 15 15 15 15 15 15 15 15 15 15 15 15 15 15 15 15 15 16 16 15 15 15 15 15 15
20 20 19 19 18 18 18 17 17 17 17 16 16 16 16 15 15 15 15 15 15 15 15 15 15 15 15 15 15 15 15 15 15 15 15 15 15 15 15 15 15 15 15
20 19 19 19 18 18 18 17 17 17 17 16 16 16 16 15 15 15 15 15 15 15 15 14 14 15 15 15 15 15 15 15 15 15 15 15 15 15 15 15 15 15 15
Wind_Speed
10 12 13 14 14 14 14 14 14 13 13 13 13 12 12 12 12 11 11 10 10 10 10 9 9 9 9 9 9 8 8 7 7 6 5 5 4 5 6 6 6 6 6
13 14 14 14 15 14 14 14 14 13 13 13 13 12 12 12 12 11 11 10 10 10 9 9 9 8 8 8 8 8 8 7 6 6 5 4 3 4 6 6 7 6 7
14 15 15 15 15 15 14 14 14 13 13 13 13 12 12 11 11 11 10 10 10 10 9 9 8 8 7 7 8 8 8 8 8 8 7 3 3 6 6 6 7 7 7
15 15 15 15 15 15 14 14 14 13 13 12 12 12 11 11 10 10 10 10 10 10 9 8 8 7 7 6 6 7 7 8 9 9 6 5 6 8 7 7 7 7 7
15 16 15 15 15 14 14 14 13 13 12 12 12 11 10 10 10 10 9 9 9 9 8 8 7 7 6 6 6 6 7 8 9 8 5 7 8 8 8 7 7 7 7
15 16 15 15 15 14 14 13 12 12 11 11 11 10 10 9 9 9 9 9 9 8 8 7 7 7 6 6 6 6 7 8 9 5 4 6 8 8 7 7 7 6 6
14 15 15 15 14 13 13 12 11 11 10 10 10 9 8 7 7 8 8 9 9 8 8 8 7 6 6 5 5 6 7 8 6 4 4 6 8 8 7 6 6 6 7
13 14 15 15 14 13 12 10 10 9 9 8 7 6 5 5 5 7 8 8 8 8 8 7 7 6 5 4 4 5 6 8 6 4 5 8 9 9 7 7 7 7 7
11 12 13 14 13 12 11 9 8 7 6 5 4 2 2 2 3 5 7 7 7 7 7 6 6 5 4 4 4 5 6 7 6 4 6 8 9 9 8 7 7 7 7
9 8 10 12 13 13 11 9 7 6 4 3 2 1 2 3 2 3 6 6 5 5 5 5 5 5 5 5 6 6 7 6 2 3 6 9 10 9 9 9 8 7 7
8 6 7 8 9 9 10 9 8 7 4 3 3 3 4 1 2 4 6 3 1 3 4 5 6 6 7 8 8 8 7 3 1 4 8 10 10 9 8 8 9 9 8
7 7 7 6 7 7 7 7 5 5 4 3 3 3 4 5 5 6 4 2 3 4 5 7 9 8 8 6 6 7 4 1 2 6 9 11 9 8 7 8 8 9 9
7 6 6 6 6 7 5 5 4 4 4 6 5 6 7 7 4 4 2 1 3 2 4 6 6 4 2 0 1 1 1 3 5 8 10 11 9 8 7 8 7 8 9
7 6 5 5 6 7 6 4 4 3 4 5 6 7 6 3 3 3 3 4 4 4 4 5 3 5 6 6 4 3 4 3 5 8 9 10 9 8 7 7 7 8 8
7 6 5 5 6 6 3 2 5 4 4 5 4 7 8 4 3 3 3 4 5 5 4 4 4 4 4 5 5 6 5 5 5 8 9 9 8 7 7 6 7 7 8
7 7 5 5 5 4 3 3 3 4 5 7 6 7 9 6 4 3 3 3 5 6 6 5 5 4 3 3 4 5 5 5 5 7 8 8 8 7 7 6 7 7 8
8 8 6 6 6 6 6 4 4 5 7 5 6 9 9 8 8 5 3 3 5 8 8 6 6 4 4 4 4 4 4 5 5 6 6 6 7 7 7 7 7 8 8
8 8 5 6 7 6 5 4 4 7 6 6 9 10 11 10 9 6 4 4 7 8 6 4 5 5 5 4 4 3 3 4 5 5 5 6 7 7 7 7 7 8 8
9 8 6 6 6 6 4 4 5 5 5 8 10 10 11 12 11 7 4 5 8 5 4 6 5 4 4 3 2 3 4 4 3 5 5 6 7 8 8 7 8 9 8
9 9 8 6 6 5 3 4 4 5 4 7 7 8 9 10 11 8 4 6 7 5 6 5 6 5 4 4 4 4 3 4 4 5 5 6 7 8 8 7 7 8 10
8 9 8 6 6 5 3 3 3 3 4 4 5 7 9 10 10 7 5 5 5 5 5 6 5 6 5 4 3 3 4 5 5 5 4 4 5 7 8 8 8 8 9
7 7 8 7 6 6 3 3 3 3 4 4 3 6 9 10 10 8 5 4 4 5 6 6 5 5 4 5 3 2 3 5 5 5 5 5 5 6 6 10 10 10 10
7 6 7 7 7 6 4 3 4 3 2 3 4 3 5 8 9 9 7 5 4 5 5 6 6 6 5 5 6 4 3 2 2 4 5 5 5 5 4 7 10 11 12
7 6 7 6 7 6 5 4 3 3 3 3 3 2 4 7 7 7 7 6 5 5 6 6 7 5 5 5 4 5 4 2 2 2 4 5 6 6 6 6 8 10 12
7 6 6 7 7 6 6 4 3 4 3 3 3 3 4 4 5 6 7 7 5 4 5 6 6 6 5 5 4 4 5 5 5 3 2 3 4 4 5 5 5 7 10
7 6 7 8 7 5 5 4 3 5 5 4 3 2 3 3 3 4 5 5 5 4 5 5 5 6 5 6 6 5 5 4 4 3 2 2 2 2 4 4 4 5 8
Wind_Direction
95 94 91 88 86 85 83 81 80 78 76 73 70 67 64 62 59 57 55 53 50 46 43 41 38 37 37 34 31 28 26 19 15 13 16 23 32 43 42 31 33 39 43
105 99 93 90 88 86 84 82 80 77 75 72 69 65 62 60 57 55 53 51 49 46 41 39 37 35 35 31 26 21 15 7 359 352 347 352 22 52 51 38 38 41 37
103 102 94 91 89 87 85 83 80 77 74 70 66 63 60 58 55 52 49 49 47 44 40 36 34 31 31 29 24 17 7 356 345 336 324 314 62 67 59 43 43 40 33
96 94 94 93 91 89 86 83 81 77 73 68 65 61 58 55 52 49 46 46 43 40 38 36 31 28 27 23 17 11 1 349 339 338 353 28 52 70 59 44 41 37 31
94 95 97 96 94 91 87 84 80 75 71 68 64 59 55 52 49 47 45 43 39 37 36 31 25 24 25 18 7 1 354 342 339 340 6 41 58 64 54 43 37 34 30
102 102 102 100 97 94 89 84 79 74 70 65 60 56 53 51 50 48 45 40 38 36 34 30 24 24 22 15 6 356 345 337 337 341 33 53 66 63 53 43 37 34 32
108 110 110 107 103 98 92 85 78 74 70 65 61 57 54 51 49 49 45 40 35 32 31 28 22 19 16 12 2 348 339 336 324 345 51 67 70 61 47 43 37 38 38
116 118 120 120 116 109 100 91 83 80 75 70 65 59 55 56 58 57 50 41 34 29 27 22 16 14 12 1 347 339 336 334 350 17 60 72 69 59 48 46 40 42 41
117 126 133 135 129 121 114 108 100 92 87 84 79 60 49 43 69 73 64 45 33 27 21 15 5 356 348 334 320 318 326 331 341 3 59 72 68 59 53 49 47 46 44
122 127 132 134 135 139 136 133 131 124 123 131 159 259 280 246 193 107 80 58 33 19 5 354 339 325 311 297 290 294 304 312 349 34 70 74 69 59 50 48 52 49 46
113 121 119 122 122 127 133 138 157 157 165 184 215 255 286 78 133 121 83 89 15 335 319 308 303 293 284 275 264 271 288 266 123 85 77 80 72 61 50 50 49 47 46
127 123 121 123 126 117 97 120 132 116 109 76 45 40 12 41 34 68 114 198 258 284 299 282 284 280 266 254 242 241 266 288 90 92 88 85 75 64 54 51 50 50 48
116 112 121 124 116 112 106 98 83 87 91 57 25 50 39 24 25 63 104 254 283 328 326 311 294 290 296 265 312 211 86 39 60 83 93 86 78 68 59 53 55 54 50
109 104 99 107 106 95 89 102 91 72 75 57 18 46 53 24 17 23 48 8 13 17 348 340 347 13 15 27 17 24 49 59 84 99 99 90 82 72 63 56 59 55 52
119 114 94 85 89 94 88 78 87 65 52 72 16 41 54 37 12 4 53 16 14 10 2 355 16 24 23 23 20 33 30 52 78 96 105 100 91 80 69 61 59 57 52
129 110 95 91 86 100 104 85 78 97 79 57 25 43 49 41 32 10 32 20 10 10 12 13 21 15 18 36 26 37 36 35 68 102 116 114 101 89 74 66 65 63 57
123 111 100 92 74 61 58 61 78 65 68 62 34 28 47 45 43 27 17 11 12 13 13 21 20 14 23 35 37 41 49 30 45 85 110 122 116 98 83 76 70 67 65
118 110 107 97 89 76 63 50 63 57 53 55 46 25 30 36 52 38 12 8 23 19 12 22 25 13 19 25 29 35 51 39 36 56 85 96 105 109 101 87 76 72 71
119 122 116 95 97 91 92 82 66 70 57 58 51 30 22 25 37 41 19 20 27 23 14 23 24 14 12 14 36 57 52 52 30 44 59 74 81 93 106 95 83 73 71
125 122 112 108 105 106 85 81 68 55 55 61 60 40 24 27 28 30 29 36 32 25 15 23 17 11 6 8 33 52 57 55 47 41 45 62 67 71 78 86 85 76 68
125 121 123 126 109 93 68 71 75 71 68 60 61 43 33 34 25 29 29 33 38 38 23 25 15 10 11 9 30 31 44 52 50 54 47 54 54 55 63 69 71 75 67
122 124 128 118 105 97 83 91 96 86 86 85 62 46 44 39 26 31 33 26 38 37 26 28 23 16 10 23 31 38 28 20 17 41 46 52 44 46 50 59 58 67 70
128 125 117 117 112 105 100 79 75 73 73 79 75 55 49 50 38 26 24 30 36 46 32 30 25 28 17 16 34 49 62 28 349 9 33 46 36 38 44 58 56 57 65
131 125 124 117 109 106 102 87 94 94 88 81 83 83 75 62 50 27 25 34 43 42 38 33 31 20 29 20 17 28 46 73 61 19 11 29 36 42 42 51 52 51 58
130 126 118 112 106 107 104 92 72 71 80 76 81 78 83 68 57 36 35 37 41 40 43 42 35 30 28 25 28 21 16 20 35 62 29 12 22 32 47 52 57 53 53
125 122 115 113 108 109 113 119 106 90 87 80 77 65 84 81 57 44 46 43 44 42 38 33 43 45 37 31 31 32 35 34 18 29 34 27 30 22 41 45 50 53 53
Height
1529 1528 1529 1529 1529 1530 1530 1531 1531 1532 1532 1532 1532 1532 1532 1532 1532 1532 1532 1532 1532 1532 1532 1532 1533 1533 1533 1533 1533 1533 1533 1533 1533 1533 1534 1534 1534 1534 1534 1533 1533 1533 1533
1529 1529 1530 1530 1530 1531 1531 1532 1532 1533 1533 1533 1533 1533 1533 1533 1533 1533 1533 1533 1533 1533 1533 1533 1533 1533 1533 1533 1533 1533 1533 1533 1533 1534 1534 1534 1534 1534 1534 1534 1533 1533 1533
1530 1530 1531 1531 1532 1532 1533 1533 1533 1534 1534 1534 1534 1534 1534 1534 1534 1534 1534 1533 1533 1533 1533 1533 1532 1532 1533 1533 1533 1533 1533 1533 1533 1534 1534 1534 1534 1534 1534 1533 1533 1533 1533
1532 1532 1532 1532 1533 1533 1534 1535 1535 1535 1535 1535 1535 1535 1535 1535 1535 1534 1534 1534 1534 1533 1533 1533 1532 1532 1532 1533 1533 1533 1533 1533 1533 1534 1534 1534 1534 1534 1533 1533 1533 1533 1533
1533 1533 1534 1534 1534 1535 1536 1536 1536 1536 1536 1537 1536 1536 1536 1535 1535 1535 1534 1534 1534 1533 1533 1532 1532 1532 1532 1532 1532 1533 1533 1533 1533 1533 1534 1534 1534 1534 1534 1533 1533 1533 1532
1534 1535 1535 1536 1536 1537 1537 1537 1538 1538 1538 1538 1537 1537 1537 1536 1536 1535 1535 1534 1534 1533 1533 1532 1532 1532 1532 1532 1532 1532 1533 1533 1533 1534 1534 1534 1534 1534 1533 1533 1533 1532 1532
1536 1537 1537 1538 1538 1538 1539 1539 1539 1539 1539 1539 1538 1538 1538 1537 1537 1536 1535 1535 1534 1533 1533 1533 1532 1532 1532 1532 1532 1532 1532 1533 1533 1534 1534 1534 1534 1534 1533 1533 1532 1532 1532
1538 1539 1539 1540 1540 1540 1541 1541 1541 1541 1540 1540 1540 1539 1538 1538 1537 1537 1536 1535 1535 1534 1533 1533 1533 1532 1532 1532 1532 1532 1532 1533 1533 1534 1534 1534 1534 1534 1533 1533 1533 1532 1532
1541 1541 1541 1541 1542 1542 1542 1543 1542 1542 1542 1541 1541 1540 1540 1539 1539 1538 1537 1536 1535 1534 1534 1533 1533 1533 1533 1533 1533 1533 1533 1533 1534 1534 1534 1534 1534 1534 1533 1533 1533 1533 1532
1543 1543 1544 1544 1544 1544 1544 1544 1544 1544 1543 1543 1542 1542 1541 1540 1540 1539 1539 1538 1536 1535 1535 1534 1534 1534 1533 1533 1533 1533 1534 1534 1534 1534 1534 1535 1535 1534 1534 1534 1533 1533 1533
1545 1546 1546 1546 1547 1547 1546 1546 1546 1546 1545 1544 1544 1544 1543 1543 1542 1541 1540 1539 1538 1537 1536 1535 1535 1534 1534 1534 1534 1535 1535 1534 1535 1535 1535 1535 1535 1535 1534 1534 1534 1534 1534
1546 1548 1548 1548 1549 1549 1549 1548 1548 1548 1547 1546 1546 1545 1545 1544 1544 1543 1542 1540 1539 1538 1537 1536 1536 1535 1535 1535 1535 1536 1536 1536 1536 1536 1536 1536 1536 1535 1535 1535 1535 1535 1535
1548 1549 1549 1550 1550 1550 1550 1550 1550 1550 1549 1548 1548 1547 1546 1545 1545 1544 1542 1541 1540 1539 1538 1537 1537 1537 1537 1537 1537 1536 1537 1537 1537 1537 1537 1537 1537 1536 1536 1536 1536 1536 1535
1549 1550 1551 1552 1552 1552 1552 1552 1551 1551 1551 1550 1549 1548 1547 1546 1546 1545 1544 1543 1542 1541 1540 1539 1538 1538 1538 1538 1538 1537 1537 1538 1537 1537 1538 1538 1537 1537 1537 1537 1537 1537 1536
1550 1551 1552 1553 1553 1553 1553 1553 1553 1553 1552 1551 1551 1550 1549 1548 1547 1546 1545 1544 1543 1542 1541 1540 1539 1539 1538 1538 1538 1538 1538 1539 1539 1538 1539 1539 1538 1538 1539 1538 1538 1538 1537
1551 1552 1553 1554 1554 1555 1555 1555 1555 1554 1554 1553 1552 1552 1550 1549 1548 1547 1546 1545 1544 1543 1542 1541 1541 1540 1540 1540 1540 1540 1540 1540 1540 1540 1540 1540 1540 1540 1540 1539 1539 1539 1538
1552 1553 1554 1555 1556 1556 1556 1556 1556 1556 1555 1554 1553 1553 1552 1551 1549 1548 1547 1547 1546 1545 1544 1543 1542 1541 1541 1541 1541 1541 1541 1541 1541 1541 1541 1541 1541 1541 1541 1540 1540 1540 1539
1552 1554 1555 1556 1556 1557 1557 1557 1557 1557 1557 1556 1555 1554 1553 1552 1551 1550 1549 1548 1547 1546 1545 1544 1543 1543 1542 1542 1542 1542 1542 1543 1543 1543 1543 1543 1543 1542 1542 1542 1541 1541 1540
1553 1554 1556 1557 1557 1558 1558 1558 1558 1558 1558 1557 1556 1555 1554 1554 1553 1552 1551 1550 1548 1547 1546 1545 1545 1544 1544 1544 1544 1544 1544 1544 1544 1544 1544 1544 1544 1544 1543 1543 1542 1542 1541
1554 1555 1556 1558 1559 1559 1559 1560 1560 1559 1559 1558 1557 1556 1556 1555 1554 1553 1552 1551 1550 1548 1547 1547 1546 1546 1546 1545 1545 1546 1546 1546 1546 1546 1546 1546 1546 1546 1545 1545 1544 1543 1542
1555 1556 1557 1558 1559 1560 1560 1560 1561 1560 1560 1559 1559 1558 1557 1556 1556 1555 1554 1553 1551 1550 1549 1549 1548 1548 1547 1547 1547 1547 1548 1548 1548 1548 1548 1548 1548 1548 1547 1546 1545 1544 1543
1555 1556 1557 1559 1560 1560 1561 1561 1561 1561 1561 1561 1560 1560 1559 1558 1557 1556 1555 1555 1553 1552 1551 1551 1550 1549 1549 1549 1549 1548 1549 1551 1550 1551 1550 1550 1550 1550 1549 1548 1547 1546 1545
1555 1557 1558 1559 1560 1561 1561 1562 1562 1562 1562 1562 1562 1561 1560 1559 1558 1558 1557 1557 1556 1554 1554 1553 1552 1551 1551 1551 1551 1551 1551 1552 1552 1553 1553 1552 1552 1551 1551 1550 1549 1548 1547
1555 1557 1558 1559 1560 1561 1562 1562 1563 1563 1563 1564 1563 1563 1562 1561 1560 1560 1559 1559 1557 1556 1556 1555 1554 1554 1553 1553 1553 1553 1554 1554 1554 1554 1555 1554 1554 1553 1553 1552 1551 1550 1549
1554 1556 1558 1559 1560 1561 1562 1563 1563 1564 1564 1564 1564 1564 1564 1563 1562 1562 1561 1560 1559 1558 1558 1557 1556 1556 1555 1555 1555 1555 1555 1555 1555 1555 1556 1556 1555 1555 1555 1554 1553 1552 1551
1553 1555 1557 1558 1559 1561 1562 1563 1564 1564 1565 1565 1565 1565 1565 1564 1564 1563 1563 1562 1561 1560 1560 1559 1559 1558 1557 1557 1557 1557 1557 1556 1557 1557 1557 1557 1556 1557 1556 1555 1554 1554 1553